Minneapolis, MN

7:49 AM CST on January 22, 2017 (GMT -0600)
RBC Plaza Weather | | Change Station
Active Advisory: Dense Fog Advisory

Elev 853 ft 44.98 °N, 93.27 °W | Updated 33 seconds ago

Overcast
Overcast
32.9 °F
Feels Like 25 °F
N
9.0
Wind Variable Wind from NNW

Today
High -- | Low -- °F
--% Chance of Precip.
Yesterday
High -- | Low -- °F
Precip. -- in
Pressure 29.64 in
Visibility 3.0 miles
Clouds Overcast 200 ft
Windchill 25 °F
Dew Point 32 °F
Humidity 98%
Rainfall 0.00 in
Snow Depth Not available.
7:42 AM 5:07 PM
Waning Crescent, 26% visible
SPECI KMIC 221330Z 35005KT 3SM BR OVC002 01/00 A2964 RMK AO2 T00110000
Pressure 29.64 in
Visibility 3.0 miles
Clouds Overcast 200 ft
Windchill 25 °F
Dew Point 32 °F
Humidity 98%
Rainfall 0.00 in
Snow Depth Not available.
7:42 AM 5:07 PM
Waning Crescent, 26% visible
SPECI KMIC 221330Z 35005KT 3SM BR OVC002 01/00 A2964 RMK AO2 T00110000

Get Your Daily Forecast Email!

Thanks for signing up!

Be on the lookout for a verification email in your inbox.

You'll start receiving the daily forecast at 8 AM.

×

10-Day Weather Forecast

Almanac

Astronomy

Jan. 22, 2017 Rise Set
Actual Time
Civil Twilight
Nautical Twilight
Astronomical Twilight
Moon
Length of Visible Light
Length of Day
Tomorrow will be .
, % of the Moon is Illuminated

Today's Extremes

State Highs State Lows

Community

WunderPhotos

Upload Photos

1,962,540 photos uploaded!

WunderBlog® & News

Nearby

Air Quality

  Air Quality AQ Index Pollutant
Not available.

Snow Depth

Station Depth Elevation

Earthquake Activity

City Distance Mag. Time & Date
Minimum magnitude displayed is 2.5.

Coastal Water Temperatures

Place Temperature

Stations

Nearby Weather Stations

Station Location Temp. Windchill Dew Point Humidity Wind Precip. Elev Updated Type
                   

Watches & Warnings

Dense Fog Advisory
Issued: 6:29 AM CST Jan. 22, 2017 – National Weather Service

... Dense fog advisory remains in effect until noon CST today...

* visibility... areas of dense fog producing visibility one
quarter mile or less.

* Impacts... low visibilities will result in difficult driving
conditions.

Precautionary/preparedness actions...

A dense fog advisory means visibilities will frequently be
reduced to less than one quarter mile. If driving... slow down...
use your headlights... and leave plenty of distance ahead of you.